STARLINK-32019 (60147 NORAD) Tracking and Keplerian Element Data

This shows tracking and keplerian element data for the satellite.

Feedback or suggestion? Click here.




ElementValue
Catalog60147
NameSTARLINK-32019
Epoch Orbit1773
Epoch Day286.43911782
Epoch Year2024
RAAN188.2958
Inclination53.1582
Eccentricity7.7E-05
Argument of Perigee84.4956
Mean Anonmoly275.6136
Mean Motion15.3964513
Decay Rate0.00106534
L11 60147U 24120N 24286.43911782 .00106534 00000+0 26341-2 0 9990
L22 60147 53.1582 188.2958 0000770 84.4956 275.6136 15.39645130 17730



Live tracking and technical data element details for STARLINK-32019 (NORAD 60147). STARLINK-32019 can be tracked NOW for your location showing map with azimuth and elevation plus other details from your city location.







IsCatalogInMostPopularTable: catalog: 60147, numindb: 8
Update: records affected: 1



GetName: 60147 STARLINK-32019

Hit Count: updated at: Thu, 23 Jan 2025 13:48:06 GMT